Simultaneous Nadir Overpasses (SNOs) Predictions

Prediction of SNOs between NOAA-19 and TERRA Satellite Orbit:

Table of predicted SNOs for the next 14.0 days since TLE Epoch: 8/2/2014
Index Date (NOAA-19) Time (NOAA-19) Lat,Lon (NOAA-19) SZA (NOAA-19 ) Date (TERRA) Time (TERRA) Lat,Lon (TERRA) SZA (TERRA ) Distance(km) Time Diff (sec)
1 08/02/2014 04:48:54 69.79, 110.99 51.91 08/02/2014 04:47:47 69.89, 108.71 52.00 88.08 67
2 08/04/2014 08:42:03 -70.75,-128.73 126.58 08/04/2014 08:42:26 -70.76,-128.75 126.57 1.57 23
3 08/04/2014 09:32:59 70.66, 38.67 53.35 08/04/2014 09:31:53 70.66, 38.74 53.35 2.80 66
4 08/06/2014 13:25:52 -70.79, 160.28 125.94 08/06/2014 13:26:45 -70.80, 160.24 125.93 2.53 53
5 08/06/2014 14:16:48 70.71, -32.33 53.99 08/06/2014 14:16:12 70.70, -32.27 53.99 2.06 36
6 08/08/2014 18:09:48 -71.19, 88.64 124.91 08/08/2014 18:10:59 -71.11, 89.63 125.00 36.75 71
7 08/08/2014 19:00:37 70.75,-103.33 54.66 08/08/2014 19:00:31 70.74,-103.31 54.64 2.28 6
8 08/10/2014 23:44:26 70.81,-174.35 55.35 08/10/2014 23:44:49 70.81,-174.27 55.35 2.87 23
9 08/11/2014 00:35:29 -70.66, -6.87 124.79 08/11/2014 00:34:20 -70.65, -6.88 124.80 0.69 69
10 08/13/2014 04:28:14 70.81, 114.72 56.01 08/13/2014 04:29:08 70.82, 114.66 56.02 2.22 54
11 08/13/2014 05:19:18 -70.73, -77.91 124.07 08/13/2014 05:18:38 -70.72, -77.86 124.07 1.91 40
12 08/15/2014 09:12:11 71.29, 42.96 57.17 08/15/2014 09:13:21 71.15, 44.09 57.03 43.33 70
13 08/15/2014 10:03:06 -70.75,-148.87 123.37 08/15/2014 10:02:56 -70.77,-148.85 123.34 3.01 10




NCC Satellite Simultaneous Nadir Overpasses (SNOs) Prediction Service
